| time (UTC) | temp F | wind direction | speed MPH | gust MPH | rain 1hr in | rain 24hr in | rain mn in | humidity % | barometer mb |
| 20260904000212 | 84 | 290 | 0.0 | 2.0 | 0.00 | 0.00 | 0.00 | 78 | 1014.4 |
| 20260903235943 | 84 | 268 | 0.0 | 3.0 | 0.00 | 0.00 | 0.00 | 78 | 1014.4 |
| 20260903235209 | 84 | 268 | 0.0 | 3.0 | 0.00 | 0.00 | 0.00 | 78 | 1014.4 |
| 20260903234710 | 84 | 262 | 0.0 | 2.0 | 0.00 | 0.00 | 0.00 | 79 | 1014.5 |
| 20260903234209 | 84 | 261 | 0.0 | 2.0 | 0.00 | 0.00 | 0.00 | 79 | 1014.4 |
| 20260903233707 | 84 | 209 | 0.0 | 2.0 | 0.00 | 0.00 | 0.00 | 78 | 1014.5 |
| 20260903233209 | 84 | 199 | 0.0 | 2.0 | 0.00 | 0.00 | 0.00 | 78 | 1014.5 |
| 20260903232708 | 84 | 211 | 0.0 | 2.0 | 0.00 | 0.00 | 0.00 | 77 | 1014.4 |
| 20260903232208 | 85 | 211 | 0.0 | 2.0 | 0.00 | 0.00 | 0.00 | 78 | 1014.3 |
| 20260903231938 | 85 | 211 | 0.0 | 2.0 | 0.00 | 0.00 | 0.00 | 77 | 1014.2 |
| 20260903231205 | 85 | 263 | 0.0 | 2.0 | 0.00 | 0.00 | 0.00 | 77 | 1014.2 |
| 20260903230706 | 86 | 228 | 0.0 | 2.0 | 0.00 | 0.00 | 0.00 | 76 | 1014.0 |
| 20260903230450 | 86 | 257 | 0.0 | 2.0 | 0.00 | 0.00 | 0.00 | 74 | 1013.9 |
| 20260903225705 | 86 | 259 | 0.0 | 1.0 | 0.00 | 0.00 | 0.00 | 74 | 1013.9 |
| 20260903225204 | 86 | 232 | 0.0 | 1.0 | 0.00 | 0.00 | 0.00 | 74 | 1014.0 |
| 20260903224705 | 86 | 219 | 0.0 | 2.0 | 0.00 | 0.00 | 0.00 | 75 | 1014.1 |
| 20260903224203 | 86 | 260 | 0.0 | 2.0 | 0.00 | 0.00 | 0.00 | 76 | 1014.1 |
| 20260903223706 | 85 | 260 | 0.0 | 2.0 | 0.00 | 0.00 | 0.00 | 78 | 1014.2 |
| 20260903223205 | 84 | 259 | 0.0 | 2.0 | 0.00 | 0.00 | 0.00 | 79 | 1014.2 |
| 20260903222704 | 84 | 290 | 1.0 | 4.0 | 0.00 | 0.00 | 0.00 | 79 | 1014.3 |
| 20260903222205 | 83 | 263 | 1.0 | 4.0 | 0.00 | 0.00 | 0.00 | 81 | 1014.5 |
| 20260903221659 | 83 | 273 | 0.0 | 3.0 | 0.00 | 0.00 | 0.00 | 82 | 1014.4 |
| 20260903221200 | 82 | 285 | 0.0 | 3.0 | 0.00 | 0.00 | 0.00 | 83 | 1014.3 |
| 20260903220658 | 82 | 285 | 1.0 | 4.0 | 0.00 | 0.00 | 0.00 | 83 | 1014.5 |
| 20260903220159 | 82 | 276 | 1.0 | 4.0 | 0.00 | 0.00 | 0.00 | 82 | 1014.6 |
| 20260903215659 | 81 | 261 | 0.0 | 3.0 | 0.00 | 0.00 | 0.00 | 82 | 1014.6 |
| 20260903215200 | 81 | 294 | 1.0 | 3.0 | 0.00 | 0.00 | 0.00 | 82 | 1014.7 |
| 20260903214654 | 81 | 322 | 1.0 | 5.0 | 0.00 | 0.00 | 0.00 | 82 | 1014.8 |
| 20260903214155 | 81 | 222 | 1.0 | 5.0 | 0.00 | 0.00 | 0.00 | 82 | 1014.9 |
| 20260903213656 | 81 | 273 | 0.0 | 5.0 | 0.00 | 0.00 | 0.00 | 83 | 1014.8 |
| 20260903213156 | 81 | 267 | 1.0 | 6.0 | 0.00 | 0.00 | 0.00 | 82 | 1014.9 |
| 20260903212655 | 81 | 258 | 1.0 | 6.0 | 0.00 | 0.00 | 0.00 | 84 | 1014.8 |
| 20260903212156 | 81 | 263 | 1.0 | 8.0 | 0.00 | 0.00 | 0.00 | 84 | 1014.8 |
| 20260903211700 | 82 | 273 | 2.0 | 7.0 | 0.00 | 0.00 | 0.00 | 83 | 1015.1 |
| 20260903211655 | 81 | 279 | 2.0 | 8.0 | 0.00 | 0.00 | 0.00 | 83 | 1014.7 |
| 20260903210652 | 82 | 241 | 2.0 | 7.0 | 0.00 | 0.00 | 0.00 | 80 | 1015.3 |
| 20260903210152 | 83 | 276 | 1.0 | 8.0 | 0.00 | 0.00 | 0.00 | 79 | 1015.2 |
| 20260903205648 | 83 | 201 | 2.0 | 8.0 | 0.00 | 0.00 | 0.00 | 78 | 1015.4 |
| 20260903205147 | 84 | 216 | 3.0 | 9.0 | 0.00 | 0.00 | 0.00 | 77 | 1015.7 |
| 20260903204916 | 84 | 283 | 4.0 | 9.0 | 0.00 | 0.00 | 0.00 | 75 | 1015.6 |
| 20260903204146 | 85 | 259 | 3.0 | 7.0 | 0.00 | 0.00 | 0.00 | 72 | 1015.7 |
| 20260903203644 | 87 | 238 | 3.0 | 8.0 | 0.00 | 0.00 | 0.00 | 69 | 1015.8 |
| 20260903203143 | 90 | 224 | 2.0 | 8.0 | 0.00 | 0.00 | 0.00 | 67 | 1015.6 |
| 20260903202636 | 92 | 235 | 2.0 | 7.0 | 0.00 | 0.00 | 0.00 | 64 | 1015.5 |
| 20260903202136 | 93 | 123 | 2.0 | 7.0 | 0.00 | 0.00 | 0.00 | 60 | 1015.2 |
| 20260903201634 | 93 | 217 | 2.0 | 6.0 | 0.00 | 0.00 | 0.00 | 60 | 1015.2 |
| 20260903201132 | 93 | 152 | 1.0 | 6.0 | 0.00 | 0.00 | 0.00 | 60 | 1015.2 |
| 20260903200631 | 93 | 188 | 1.0 | 8.0 | 0.00 | 0.00 | 0.00 | 63 | 1015.2 |
| 20260903200357 | 93 | 109 | 2.0 | 8.0 | 0.00 | 0.00 | 0.00 | 59 | 1015.1 |
| 20260903195622 | 93 | 123 | 2.0 | 8.0 | 0.00 | 0.00 | 0.00 | 59 | 1015.0 |
| 20260903195123 | 93 | 133 | 3.0 | 8.0 | 0.00 | 0.00 | 0.00 | 59 | 1015.0 |
| 20260903194624 | 93 | 124 | 3.0 | 5.0 | 0.00 | 0.00 | 0.00 | 62 | 1015.0 |
| 20260903194124 | 92 | 126 | 3.0 | 6.0 | 0.00 | 0.00 | 0.00 | 59 | 1015.1 |
| 20260903193855 | 92 | 82 | 2.0 | 8.0 | 0.00 | 0.00 | 0.00 | 59 | 1015.1 |
| 20260903193121 | 93 | 117 | 1.0 | 8.0 | 0.00 | 0.00 | 0.00 | 62 | 1015.4 |
| 20260903192619 | 92 | 105 | 2.0 | 7.0 | 0.00 | 0.00 | 0.00 | 59 | 1015.5 |
| 20260903192353 | 92 | 127 | 2.0 | 7.0 | 0.00 | 0.00 | 0.00 | 59 | 1015.5 |
| 20260903191620 | 92 | 107 | 3.0 | 8.0 | 0.00 | 0.00 | 0.00 | 61 | 1015.5 |
| 20260903191118 | 92 | 106 | 3.0 | 8.0 | 0.00 | 0.00 | 0.00 | 61 | 1015.6 |
| 20260903190617 | 92 | 107 | 2.0 | 4.0 | 0.00 | 0.00 | 0.00 | 61 | 1015.6 |
| 20260903190116 | 92 | 28 | 3.0 | 7.0 | 0.00 | 0.00 | 0.00 | 59 | 1015.7 |
| 20260903185614 | 92 | 134 | 3.0 | 9.0 | 0.00 | 0.00 | 0.00 | 61 | 1015.6 |
| 20260903185119 | 92 | 84 | 3.0 | 8.0 | 0.00 | 0.00 | 0.00 | 58 | 1015.8 |
| 20260903185113 | 92 | 123 | 3.0 | 9.0 | 0.00 | 0.00 | 0.00 | 60 | 1015.8 |
| 20260903184112 | 92 | 101 | 4.0 | 9.0 | 0.00 | 0.00 | 0.00 | 59 | 1015.9 |
| 20260903183611 | 91 | 78 | 4.0 | 9.0 | 0.00 | 0.00 | 0.00 | 60 | 1015.9 |
| 20260903183104 | 91 | 126 | 4.0 | 8.0 | 0.00 | 0.00 | 0.00 | 64 | 1016.0 |
| 20260903182603 | 91 | 134 | 3.0 | 7.0 | 0.00 | 0.00 | 0.00 | 64 | 1016.1 |
| 20260903182101 | 91 | 78 | 3.0 | 8.0 | 0.00 | 0.00 | 0.00 | 64 | 1016.1 |
| 20260903181600 | 91 | 110 | 2.0 | 8.0 | 0.00 | 0.00 | 0.00 | 66 | 1016.0 |
| 20260903181059 | 90 | 109 | 2.0 | 7.0 | 0.00 | 0.00 | 0.00 | 68 | 1016.2 |
| 20260903180558 | 90 | 103 | 2.0 | 4.0 | 0.00 | 0.00 | 0.00 | 67 | 1016.2 |
| 20260903180327 | 90 | 103 | 2.0 | 8.0 | 0.00 | 0.00 | 0.00 | 67 | 1016.2 |
| 20260903175555 | 91 | 54 | 2.0 | 8.0 | 0.00 | 0.00 | 0.00 | 65 | 1016.2 |
| 20260903175056 | 91 | 120 | 2.0 | 8.0 | 0.00 | 0.00 | 0.00 | 62 | 1016.3 |
| 20260903174553 | 91 | 107 | 2.0 | 8.0 | 0.00 | 0.00 | 0.00 | 61 | 1016.3 |
| 20260903174054 | 91 | 47 | 2.0 | 7.0 | 0.00 | 0.00 | 0.00 | 64 | 1016.3 |
| 20260903173550 | 91 | 103 | 1.0 | 7.0 | 0.00 | 0.00 | 0.00 | 64 | 1016.4 |
| 20260903173049 | 91 | 61 | 2.0 | 7.0 | 0.00 | 0.00 | 0.00 | 65 | 1016.5 |
| 20260903172817 | 91 | 110 | 3.0 | 9.0 | 0.00 | 0.00 | 0.00 | 65 | 1016.5 |
| 20260903172318 | 91 | 80 | 3.0 | 9.0 | 0.00 | 0.00 | 0.00 | 64 | 1016.5 |
| 20260903171548 | 91 | 136 | 3.0 | 7.0 | 0.00 | 0.01 | 0.00 | 65 | 1016.7 |
| 20260903171048 | 90 | 88 | 2.0 | 5.0 | 0.00 | 0.04 | 0.00 | 67 | 1016.7 |
| 20260903170553 | 91 | 54 | 2.0 | 5.0 | 0.00 | 0.06 | 0.00 | 66 | 1016.7 |
| 20260903170312 | 91 | 350 | 2.0 | 6.0 | 0.00 | 0.07 | 0.00 | 66 | 1016.7 |
| 20260903165543 | 90 | 72 | 3.0 | 9.0 | 0.00 | 0.07 | 0.00 | 65 | 1016.6 |
| 20260903165042 | 90 | 111 | 2.0 | 9.0 | 0.00 | 0.08 | 0.00 | 67 | 1016.7 |
| 20260903164541 | 90 | 167 | 2.0 | 5.0 | 0.00 | 0.09 | 0.00 | 70 | 1016.6 |
| 20260903164042 | 89 | 112 | 3.0 | 7.0 | 0.00 | 0.09 | 0.00 | 67 | 1016.7 |
| 20260903163537 | 89 | 71 | 3.0 | 9.0 | 0.00 | 0.09 | 0.00 | 68 | 1016.7 |
| 20260903163038 | 89 | 107 | 3.0 | 9.0 | 0.00 | 0.09 | 0.00 | 66 | 1016.7 |
| 20260903162537 | 89 | 83 | 2.0 | 5.0 | 0.00 | 0.09 | 0.00 | 71 | 1016.9 |
| 20260903162037 | 88 | 355 | 2.0 | 7.0 | 0.00 | 0.09 | 0.00 | 70 | 1016.8 |
| 20260903161536 | 88 | 80 | 2.0 | 7.0 | 0.00 | 0.09 | 0.00 | 71 | 1016.8 |
| 20260903161037 | 88 | 76 | 1.0 | 5.0 | 0.00 | 0.09 | 0.00 | 72 | 1016.9 |
| 20260903160529 | 88 | 58 | 1.0 | 5.0 | 0.00 | 0.09 | 0.00 | 73 | 1016.8 |
| 20260903160026 | 88 | 58 | 2.0 | 5.0 | 0.00 | 0.09 | 0.00 | 73 | 1016.9 |
| 20260903155527 | 88 | 71 | 2.0 | 5.0 | 0.00 | 0.09 | 0.00 | 72 | 1016.9 |
| 20260903155028 | 89 | 82 | 1.0 | 7.0 | 0.00 | 0.09 | 0.00 | 71 | 1016.9 |
| 20260903154527 | 89 | 126 | 1.0 | 7.0 | 0.00 | 0.09 | 0.00 | 73 | 1017.0 |
| 20260903154029 | 88 | 126 | 2.0 | 7.0 | 0.00 | 0.09 | 0.00 | 71 | 1017.0 |
| 20260903153752 | 88 | 105 | 2.0 | 7.0 | 0.00 | 0.09 | 0.00 | 72 | 1017.0 |
| 20260903153018 | 88 | 38 | 1.0 | 5.0 | 0.00 | 0.09 | 0.00 | 76 | 1017.0 |
| 20260903152517 | 87 | 16 | 1.0 | 4.0 | 0.00 | 0.09 | 0.00 | 74 | 1017.0 |
| 20260903152020 | 88 | 97 | 1.0 | 3.0 | 0.00 | 0.09 | 0.00 | 72 | 1017.1 |
| 20260903152016 | 88 | 60 | 1.0 | 4.0 | 0.00 | 0.09 | 0.00 | 73 | 1017.1 |
| 20260903151634 | 87 | 125 | 0.0 | 2.0 | 0.00 | 0.09 | 0.00 | 76 | 1017.1 |
| 20260903150744 | 87 | 152 | 1.0 | 6.0 | 0.00 | 0.09 | 0.00 | 77 | 1017.0 |
| 20260903150010 | 87 | 152 | 2.0 | 6.0 | 0.00 | 0.09 | 0.00 | 78 | 1017.1 |
| 20260903145742 | 87 | 97 | 2.0 | 5.0 | 0.00 | 0.09 | 0.00 | 78 | 1017.1 |
| 20260903145240 | 87 | 42 | 2.0 | 4.0 | 0.00 | 0.09 | 0.00 | 76 | 1017.1 |
| 20260903144510 | 87 | 102 | 2.0 | 4.0 | 0.00 | 0.09 | 0.00 | 78 | 1017.0 |
| 20260903144012 | 86 | 123 | 2.0 | 6.0 | 0.00 | 0.09 | 0.00 | 80 | 1017.0 |
| 20260903143512 | 85 | 140 | 3.0 | 6.0 | 0.00 | 0.09 | 0.00 | 82 | 1017.1 |
| 20260903143506 | 86 | 91 | 2.0 | 6.0 | 0.00 | 0.09 | 0.00 | 81 | 1017.1 |
| 20260903142737 | 85 | 42 | 2.0 | 6.0 | 0.00 | 0.09 | 0.00 | 83 | 1017.1 |
| 20260903142007 | 85 | 67 | 2.0 | 6.0 | 0.00 | 0.09 | 0.00 | 84 | 1017.2 |
| 20260903141506 | 84 | 55 | 3.0 | 7.0 | 0.00 | 0.09 | 0.00 | 85 | 1017.2 |
| 20260903141010 | 84 | 37 | 3.0 | 7.0 | 0.00 | 0.09 | 0.00 | 85 | 1017.2 |
| 20260903140502 | 84 | 105 | 4.0 | 7.0 | 0.00 | 0.09 | 0.00 | 85 | 1017.2 |
| 20260903140234 | 83 | 98 | 3.0 | 7.0 | 0.00 | 0.09 | 0.00 | 86 | 1017.3 |
| 20260903135733 | 83 | 106 | 3.0 | 7.0 | 0.00 | 0.09 | 0.00 | 86 | 1017.3 |
| 20260903135004 | 83 | 119 | 3.0 | 7.0 | 0.00 | 0.09 | 0.00 | 87 | 1017.3 |
| 20260903134506 | 82 | 96 | 2.0 | 6.0 | 0.00 | 0.09 | 0.00 | 88 | 1017.4 |
| 20260903134236 | 82 | 98 | 2.0 | 6.0 | 0.00 | 0.09 | 0.00 | 88 | 1017.3 |
| 20260903133458 | 82 | 65 | 2.0 | 4.0 | 0.00 | 0.09 | 0.00 | 88 | 1017.3 |
| 20260903132959 | 82 | 82 | 2.0 | 4.0 | 0.00 | 0.09 | 0.00 | 91 | 1017.3 |
| 20260903132456 | 81 | 136 | 2.0 | 4.0 | 0.00 | 0.09 | 0.00 | 91 | 1017.4 |
| 20260903131955 | 80 | 130 | 2.0 | 4.0 | 0.00 | 0.09 | 0.00 | 91 | 1017.4 |
| 20260903131456 | 80 | 104 | 2.0 | 4.0 | 0.00 | 0.09 | 0.00 | 91 | 1017.4 |
| 20260903131228 | 80 | 98 | 3.0 | 4.0 | 0.00 | 0.09 | 0.00 | 91 | 1017.4 |
| 20260903130453 | 79 | 80 | 2.0 | 4.0 | 0.00 | 0.09 | 0.00 | 92 | 1017.4 |
| 20260903125954 | 79 | 74 | 2.0 | 4.0 | 0.00 | 0.09 | 0.00 | 93 | 1017.4 |
| 20260903125721 | 79 | 62 | 2.0 | 4.0 | 0.00 | 0.09 | 0.00 | 93 | 1017.3 |
| 20260903124949 | 78 | 118 | 2.0 | 4.0 | 0.00 | 0.09 | 0.00 | 94 | 1017.3 |
| 20260903124720 | 78 | 65 | 1.0 | 3.0 | 0.00 | 0.09 | 0.00 | 94 | 1017.3 |
| 20260903123947 | 78 | 90 | 2.0 | 3.0 | 0.00 | 0.09 | 0.00 | 94 | 1017.1 |
| 20260903123447 | 78 | 72 | 1.0 | 3.0 | 0.00 | 0.09 | 0.00 | 95 | 1017.1 |
| 20260903122946 | 77 | 93 | 1.0 | 2.0 | 0.00 | 0.09 | 0.00 | 95 | 1017.2 |
| 20260903122441 | 77 | 95 | 1.0 | 2.0 | 0.00 | 0.09 | 0.00 | 95 | 1017.1 |
| 20260903121939 | 77 | 94 | 1.0 | 2.0 | 0.00 | 0.09 | 0.00 | 95 | 1017.1 |
| 20260903121437 | 77 | 117 | 1.0 | 2.0 | 0.00 | 0.09 | 0.00 | 95 | 1017.1 |
| 20260903120934 | 76 | 117 | 0.0 | 1.0 | 0.00 | 0.09 | 0.00 | 95 | 1017.1 |
| 20260903120705 | 76 | 117 | 1.0 | 1.0 | 0.00 | 0.09 | 0.00 | 95 | 1017.0 |
| 20260903120203 | 76 | 117 | 0.0 | 2.0 | 0.00 | 0.09 | 0.00 | 95 | 1016.9 |
| 20260903120051 | 76 | 117 | 0.0 | 2.0 | 0.00 | 0.09 | 0.00 | 95 | 1016.9 |
| 20260903114931 | 76 | 117 | 1.0 | 2.0 | 0.00 | 0.09 | 0.00 | 95 | 1016.9 |
| 20260903114430 | 76 | 117 | 1.0 | 2.0 | 0.00 | 0.09 | 0.00 | 95 | 1016.8 |
| 20260903113928 | 76 | 117 | 1.0 | 2.0 | 0.00 | 0.09 | 0.00 | 95 | 1016.7 |
| 20260903113428 | 76 | 117 | 1.0 | 2.0 | 0.00 | 0.09 | 0.00 | 95 | 1016.7 |
| 20260903112924 | 76 | 117 | 0.0 | 2.0 | 0.00 | 0.09 | 0.00 | 95 | 1016.8 |
| 20260903112423 | 76 | 117 | 0.0 | 2.0 | 0.00 | 0.09 | 0.00 | 95 | 1016.8 |
| 20260903111925 | 76 | 117 | 0.0 | 2.0 | 0.00 | 0.09 | 0.00 | 94 | 1016.7 |
| 20260903111424 | 76 | 117 | 0.0 | 2.0 | 0.00 | 0.09 | 0.00 | 94 | 1016.6 |
| 20260903110923 | 76 | 117 | 0.0 | 2.0 | 0.00 | 0.09 | 0.00 | 94 | 1016.6 |
| 20260903110709 | 76 | 117 | 0.0 | 2.0 | 0.00 | 0.09 | 0.00 | 95 | 1016.6 |
| 20260903105917 | 76 | 117 | 0.0 | 2.0 | 0.00 | 0.09 | 0.00 | 95 | 1016.6 |
| 20260903105415 | 76 | 117 | 0.0 | 2.0 | 0.00 | 0.09 | 0.00 | 94 | 1016.4 |
| 20260903104913 | 76 | 117 | 1.0 | 2.0 | 0.00 | 0.09 | 0.00 | 94 | 1016.4 |
| 20260903104410 | 76 | 117 | 1.0 | 1.0 | 0.00 | 0.09 | 0.00 | 94 | 1016.4 |
| 20260903103912 | 76 | 117 | 0.0 | 1.0 | 0.00 | 0.09 | 0.00 | 94 | 1016.4 |
| 20260903103636 | 76 | 117 | 1.0 | 2.0 | 0.00 | 0.09 | 0.00 | 94 | 1016.3 |
| 20260903102903 | 76 | 117 | 1.0 | 2.0 | 0.00 | 0.09 | 0.00 | 94 | 1016.2 |
| 20260903102400 | 76 | 117 | 1.0 | 2.0 | 0.00 | 0.09 | 0.00 | 94 | 1016.2 |
| 20260903101858 | 76 | 117 | 1.0 | 2.0 | 0.00 | 0.09 | 0.00 | 94 | 1016.2 |
| 20260903101359 | 76 | 117 | 1.0 | 2.0 | 0.00 | 0.09 | 0.00 | 94 | 1016.1 |
| 20260903101124 | 76 | 117 | 1.0 | 2.0 | 0.00 | 0.09 | 0.00 | 94 | 1016.1 |
| 20260903100349 | 76 | 117 | 1.0 | 2.0 | 0.00 | 0.09 | 0.00 | 94 | 1016.0 |
| 20260903095848 | 76 | 117 | 0.0 | 2.0 | 0.00 | 0.09 | 0.00 | 94 | 1016.0 |
| 20260903095347 | 76 | 129 | 0.0 | 1.0 | 0.00 | 0.09 | 0.00 | 94 | 1016.0 |
| 20260903095119 | 76 | 129 | 0.0 | 2.0 | 0.00 | 0.09 | 0.00 | 94 | 1016.0 |
| 20260903094344 | 76 | 129 | 0.0 | 2.0 | 0.00 | 0.09 | 0.00 | 94 | 1016.0 |
| 20260903093843 | 76 | 129 | 0.0 | 2.0 | 0.00 | 0.09 | 0.00 | 94 | 1016.0 |
| 20260903093615 | 76 | 129 | 0.0 | 0.0 | 0.00 | 0.09 | 0.00 | 94 | 1015.9 |
| 20260903092842 | 76 | 129 | 0.0 | 2.0 | 0.00 | 0.09 | 0.00 | 94 | 1015.9 |
| 20260903092340 | 76 | 129 | 0.0 | 2.0 | 0.00 | 0.09 | 0.00 | 94 | 1015.9 |
| 20260903092111 | 77 | 129 | 0.0 | 2.0 | 0.00 | 0.09 | 0.00 | 94 | 1015.9 |
| 20260903091337 | 77 | 129 | 0.0 | 2.0 | 0.00 | 0.09 | 0.00 | 94 | 1015.9 |
| 20260903091106 | 77 | 129 | 0.0 | 2.0 | 0.00 | 0.09 | 0.00 | 94 | 1016.0 |
| 20260903090337 | 77 | 129 | 0.0 | 0.0 | 0.00 | 0.09 | 0.00 | 94 | 1015.9 |
| 20260903085836 | 77 | 129 | 0.0 | 0.0 | 0.00 | 0.09 | 0.00 | 94 | 1015.8 |
| 20260903085335 | 77 | 129 | 0.0 | 2.0 | 0.00 | 0.09 | 0.00 | 94 | 1015.9 |
| 20260903084834 | 77 | 129 | 0.0 | 2.0 | 0.00 | 0.09 | 0.00 | 94 | 1015.8 |
| 20260903084333 | 77 | 129 | 0.0 | 2.0 | 0.00 | 0.09 | 0.00 | 94 | 1015.8 |
| 20260903084329 | 77 | 129 | 0.0 | 2.0 | 0.00 | 0.09 | 0.00 | 94 | 1015.8 |
| 20260903083324 | 77 | 129 | 0.0 | 2.0 | 0.00 | 0.09 | 0.00 | 94 | 1015.7 |
| 20260903082822 | 77 | 129 | 0.0 | 2.0 | 0.00 | 0.09 | 0.00 | 94 | 1015.8 |
| 20260903082323 | 77 | 123 | 0.0 | 2.0 | 0.00 | 0.09 | 0.00 | 94 | 1015.7 |
| 20260903081819 | 77 | 123 | 1.0 | 2.0 | 0.00 | 0.09 | 0.00 | 94 | 1015.6 |
| 20260903081318 | 77 | 123 | 1.0 | 3.0 | 0.00 | 0.09 | 0.00 | 94 | 1015.7 |
| 20260903080819 | 77 | 123 | 1.0 | 3.0 | 0.00 | 0.09 | 0.00 | 94 | 1015.6 |
| 20260903080319 | 77 | 123 | 1.0 | 3.0 | 0.00 | 0.09 | 0.00 | 94 | 1015.6 |
| 20260903075816 | 77 | 123 | 1.0 | 3.0 | 0.00 | 0.09 | 0.00 | 94 | 1015.8 |
| 20260903075318 | 77 | 118 | 0.0 | 2.0 | 0.00 | 0.09 | 0.00 | 94 | 1015.9 |
| 20260903074811 | 77 | 120 | 0.0 | 2.0 | 0.00 | 0.09 | 0.00 | 94 | 1015.9 |
| 20260903074539 | 77 | 120 | 0.0 | 2.0 | 0.00 | 0.09 | 0.00 | 94 | 1015.9 |
| 20260903073807 | 77 | 120 | 0.0 | 0.0 | 0.00 | 0.09 | 0.00 | 94 | 1016.0 |
| 20260903073307 | 77 | 120 | 0.0 | 0.0 | 0.00 | 0.09 | 0.00 | 94 | 1015.9 |
| 20260903072807 | 77 | 120 | 0.0 | 0.0 | 0.00 | 0.09 | 0.00 | 94 | 1016.0 |
| 20260903072308 | 77 | 120 | 0.0 | 0.0 | 0.00 | 0.09 | 0.00 | 94 | 1015.9 |
| 20260903071802 | 77 | 120 | 0.0 | 0.0 | 0.00 | 0.09 | 0.00 | 93 | 1016.0 |
| 20260903071257 | 77 | 120 | 0.0 | 0.0 | 0.00 | 0.09 | 0.00 | 94 | 1016.0 |
| 20260903070757 | 77 | 120 | 0.0 | 0.0 | 0.00 | 0.09 | 0.00 | 94 | 1016.0 |
| 20260903070258 | 78 | 120 | 0.0 | 0.0 | 0.00 | 0.09 | 0.00 | 94 | 1016.1 |
| 20260903065757 | 78 | 120 | 0.0 | 0.0 | 0.00 | 0.09 | 0.00 | 93 | 1016.2 |
| 20260903065258 | 78 | 120 | 0.0 | 0.0 | 0.00 | 0.09 | 0.00 | 93 | 1016.1 |
| 20260903064253 | 78 | 120 | 0.0 | 0.0 | 0.00 | 0.09 | 0.00 | 93 | 1016.1 |
| 20260903063753 | 78 | 120 | 0.0 | 0.0 | 0.00 | 0.09 | 0.00 | 93 | 1016.1 |
| 20260903063526 | 78 | 120 | 0.0 | 0.0 | 0.00 | 0.09 | 0.00 | 93 | 1016.1 |
| 20260903063025 | 78 | 120 | 0.0 | 0.0 | 0.00 | 0.09 | 0.00 | 93 | 1016.2 |
| 20260903062253 | 78 | 120 | 0.0 | 0.0 | 0.00 | 0.09 | 0.00 | 93 | 1016.2 |
| 20260903061754 | 78 | 120 | 0.0 | 0.0 | 0.00 | 0.09 | 0.00 | 93 | 1016.3 |
| 20260903061521 | 78 | 120 | 0.0 | 0.0 | 0.00 | 0.09 | 0.00 | 93 | 1016.3 |
| 20260903060749 | 78 | 120 | 0.0 | 0.0 | 0.00 | 0.09 | 0.00 | 93 | 1016.4 |
| 20260903060249 | 78 | 120 | 0.0 | 0.0 | 0.00 | 0.09 | 0.00 | 93 | 1016.5 |
| 20260903055750 | 78 | 120 | 0.0 | 0.0 | 0.00 | 0.09 | 0.00 | 93 | 1016.5 |
| 20260903055249 | 78 | 120 | 0.0 | 0.0 | 0.00 | 0.09 | 0.00 | 93 | 1016.5 |
| 20260903054751 | 78 | 120 | 0.0 | 0.0 | 0.00 | 0.09 | 0.00 | 93 | 1016.6 |
| 20260903054245 | 78 | 120 | 0.0 | 1.0 | 0.00 | 0.09 | 0.00 | 93 | 1016.6 |
| 20260903053743 | 78 | 120 | 0.0 | 1.0 | 0.00 | 0.09 | 0.00 | 93 | 1016.6 |
| 20260903053242 | 78 | 120 | 0.0 | 0.0 | 0.00 | 0.09 | 0.00 | 93 | 1016.6 |
| 20260903052739 | 78 | 120 | 0.0 | 0.0 | 0.00 | 0.09 | 0.00 | 93 | 1016.6 |
| 20260903052240 | 78 | 120 | 0.0 | 2.0 | 0.00 | 0.09 | 0.00 | 93 | 1016.6 |
| 20260903051740 | 78 | 120 | 0.0 | 2.0 | 0.00 | 0.09 | 0.00 | 93 | 1016.6 |
| 20260903051241 | 78 | 120 | 1.0 | 2.0 | 0.00 | 0.09 | 0.00 | 93 | 1016.5 |
| 20260903050735 | 78 | 120 | 1.0 | 2.0 | 0.00 | 0.09 | 0.00 | 93 | 1016.6 |
| 20260903050236 | 78 | 120 | 1.0 | 3.0 | 0.00 | 0.09 | 0.00 | 93 | 1016.6 |
| 20260903045733 | 78 | 120 | 0.0 | 3.0 | 0.00 | 0.09 | 0.09 | 93 | 1016.7 |
| 20260903045233 | 78 | 120 | 1.0 | 4.0 | 0.00 | 0.09 | 0.09 | 93 | 1016.7 |
| 20260903044731 | 78 | 120 | 2.0 | 4.0 | 0.00 | 0.09 | 0.09 | 93 | 1016.8 |
| 20260903044231 | 78 | 125 | 2.0 | 3.0 | 0.00 | 0.09 | 0.09 | 93 | 1016.8 |
| 20260903043726 | 78 | 127 | 1.0 | 4.0 | 0.00 | 0.09 | 0.09 | 93 | 1016.8 |
| 20260903043226 | 78 | 112 | 2.0 | 4.0 | 0.00 | 0.09 | 0.09 | 93 | 1016.7 |
| 20260903042726 | 78 | 92 | 2.0 | 3.0 | 0.00 | 0.09 | 0.09 | 93 | 1016.8 |
| 20260903042227 | 78 | 92 | 1.0 | 2.0 | 0.00 | 0.09 | 0.09 | 93 | 1016.8 |
| 20260903041725 | 78 | 121 | 1.0 | 2.0 | 0.00 | 0.09 | 0.09 | 93 | 1016.9 |
| 20260903041224 | 78 | 88 | 0.0 | 2.0 | 0.00 | 0.09 | 0.09 | 93 | 1017.0 |
| 20260903040718 | 78 | 88 | 1.0 | 2.0 | 0.00 | 0.09 | 0.09 | 93 | 1017.0 |
| 20260903040217 | 78 | 88 | 1.0 | 2.0 | 0.00 | 0.09 | 0.09 | 93 | 1017.1 |
| 20260903035947 | 78 | 88 | 0.0 | 2.0 | 0.00 | 0.09 | 0.09 | 93 | 1017.1 |
| 20260903035449 | 78 | 88 | 1.0 | 2.0 | 0.00 | 0.09 | 0.09 | 93 | 1017.2 |
| 20260903034715 | 78 | 88 | 1.0 | 2.0 | 0.00 | 0.09 | 0.09 | 93 | 1017.1 |
| 20260903034214 | 78 | 88 | 1.0 | 2.0 | 0.00 | 0.09 | 0.09 | 93 | 1017.0 |
| 20260903033712 | 78 | 88 | 1.0 | 2.0 | 0.00 | 0.09 | 0.09 | 93 | 1017.1 |
| 20260903033445 | 79 | 88 | 0.0 | 2.0 | 0.00 | 0.09 | 0.09 | 92 | 1017.2 |
| 20260903032713 | 79 | 88 | 0.0 | 0.0 | 0.00 | 0.09 | 0.09 | 92 | 1017.2 |
| 20260903032211 | 79 | 88 | 0.0 | 0.0 | 0.00 | 0.09 | 0.09 | 92 | 1017.2 |
| 20260903031940 | 79 | 88 | 0.0 | 0.0 | 0.00 | 0.09 | 0.09 | 92 | 1017.2 |
| 20260903031208 | 79 | 88 | 0.0 | 0.0 | 0.00 | 0.09 | 0.09 | 92 | 1017.3 |
| 20260903030701 | 79 | 88 | 0.0 | 0.0 | 0.00 | 0.09 | 0.09 | 92 | 1017.2 |
| 20260903030201 | 79 | 88 | 0.0 | 0.0 | 0.00 | 0.09 | 0.09 | 92 | 1017.4 |
| 20260903025659 | 79 | 88 | 0.0 | 0.0 | 0.00 | 0.09 | 0.09 | 92 | 1017.3 |
| 20260903025156 | 79 | 88 | 0.0 | 0.0 | 0.00 | 0.09 | 0.09 | 92 | 1017.3 |
| 20260903024656 | 79 | 88 | 0.0 | 2.0 | 0.00 | 0.09 | 0.09 | 91 | 1017.2 |
| 20260903024150 | 79 | 88 | 0.0 | 2.0 | 0.00 | 0.09 | 0.09 | 91 | 1017.3 |
| 20260903023648 | 79 | 88 | 0.0 | 2.0 | 0.00 | 0.09 | 0.09 | 91 | 1017.2 |
| 20260903023147 | 79 | 88 | 0.0 | 0.0 | 0.00 | 0.09 | 0.09 | 91 | 1017.2 |
| 20260903022645 | 79 | 88 | 0.0 | 0.0 | 0.00 | 0.09 | 0.09 | 91 | 1017.2 |
| 20260903022144 | 79 | 88 | 0.0 | 0.0 | 0.00 | 0.09 | 0.09 | 91 | 1017.3 |
| 20260903021638 | 79 | 88 | 0.0 | 0.0 | 0.00 | 0.09 | 0.09 | 91 | 1017.2 |
| 20260903021137 | 80 | 88 | 0.0 | 1.0 | 0.00 | 0.09 | 0.09 | 91 | 1017.0 |
| 20260903020638 | 80 | 88 | 0.0 | 1.0 | 0.00 | 0.09 | 0.09 | 90 | 1016.8 |
| 20260903020133 | 80 | 88 | 0.0 | 2.0 | 0.00 | 0.09 | 0.09 | 90 | 1016.8 |
| 20260903015632 | 80 | 88 | 0.0 | 2.0 | 0.00 | 0.09 | 0.09 | 91 | 1016.6 |
| 20260903015127 | 80 | 88 | 0.0 | 2.0 | 0.00 | 0.09 | 0.09 | 90 | 1016.5 |
| 20260903014624 | 80 | 88 | 0.0 | 2.0 | 0.00 | 0.09 | 0.09 | 90 | 1016.4 |
| 20260903014122 | 80 | 87 | 0.0 | 2.0 | 0.00 | 0.09 | 0.09 | 90 | 1016.3 |
| 20260903013851 | 80 | 88 | 0.0 | 0.0 | 0.00 | 0.09 | 0.09 | 90 | 1016.2 |
| 20260903013121 | 80 | 88 | 0.0 | 0.0 | 0.00 | 0.09 | 0.09 | 89 | 1016.2 |
| 20260903012614 | 80 | 87 | 0.0 | 0.0 | 0.00 | 0.09 | 0.09 | 89 | 1015.9 |
| 20260903012114 | 80 | 87 | 0.0 | 0.0 | 0.00 | 0.09 | 0.09 | 89 | 1015.9 |
| 20260903011613 | 81 | 87 | 0.0 | 0.0 | 0.00 | 0.09 | 0.09 | 88 | 1015.9 |
| 20260903011115 | 81 | 87 | 0.0 | 0.0 | 0.00 | 0.09 | 0.09 | 88 | 1016.0 |
| 20260903010847 | 81 | 87 | 0.0 | 0.0 | 0.00 | 0.09 | 0.09 | 88 | 1015.9 |
| 20260903010116 | 81 | 87 | 0.0 | 0.0 | 0.00 | 0.09 | 0.09 | 88 | 1016.0 |
| 20260903005613 | 81 | 87 | 0.0 | 0.0 | 0.00 | 0.09 | 0.09 | 87 | 1015.9 |
| 20260903005341 | 81 | 87 | 0.0 | 1.0 | 0.00 | 0.09 | 0.09 | 87 | 1015.9 |
| 20260903004608 | 82 | 87 | 1.0 | 3.0 | 0.00 | 0.09 | 0.09 | 87 | 1016.0 |
| 20260903004105 | 82 | 87 | 2.0 | 3.0 | 0.00 | 0.09 | 0.09 | 86 | 1016.0 |
| 20260903003606 | 82 | 96 | 1.0 | 2.0 | 0.00 | 0.09 | 0.09 | 86 | 1015.9 |
| 20260903003338 | 82 | 96 | 0.0 | 2.0 | 0.00 | 0.09 | 0.09 | 86 | 1016.1 |
| 20260903002559 | 82 | 96 | 0.0 | 2.0 | 0.00 | 0.09 | 0.09 | 85 | 1016.2 |
| 20260903002058 | 83 | 96 | 0.0 | 2.0 | 0.00 | 0.09 | 0.09 | 85 | 1016.1 |
| 20260903001556 | 83 | 120 | 0.0 | 2.0 | 0.00 | 0.09 | 0.09 | 84 | 1016.1 |